Ephrata, WA

7:13 AM PST on February 25, 2017 (GMT -0800)
Ephrata Municipal

Weather History for KEPH - January, 2013

Change the Weather History Date:

Monday, January 7, 2013

  Actual Average Record
Temperature  
Mean Temperature 28 °F 27 °F  
Max Temperature 31 °F 33 °F 52 °F (1990)
Min Temperature 24 °F 21 °F -9 °F (1974)
Degree Days  
Heating Degree Days 37 38  
Month to date heating degree days 270 267  
Since 1 July heating degree days 2525 2853  
Cooling Degree Days 0 0  
Month to date cooling degree days 0 0  
Year to date cooling degree days 0 0  
Moisture  
Dew Point 26 °F    
Average Humidity 93    
Maximum Humidity 100    
Minimum Humidity 85    
Precipitation  
Precipitation 0.03 in 0.04 in 0.28 in (1975)
Month to date precipitation 0.05 0.24  
Year to date precipitation 0.05 0.24  
Sea Level Pressure  
Sea Level Pressure 29.94 in    
Wind  
Wind Speed 4 mph (North)    
Max Wind Speed 31 mph    
Max Gust Speed 33 mph    
Visibility 5 miles    
Events Snow    
T = Trace of Precipitation, MM = Missing Value Source: NWS Daily Summary

Daily Weather History Graph

Daily Weather History Graph

Search for Another Location

Airport or City:

Trip Planner

Search our weather history database for the weather conditions in past years. The results will help you decide how hot, cold, wet, or windy it might be!

Date:

Astronomy

Jan. 07, 2013 Rise Set
Actual Time 7:44 AM PST 4:25 PM PST
Civil Twilight 7:09 AM PST 5:00 PM PST
Nautical Twilight 6:30 AM PST 5:38 PM PST
Astronomical Twilight 5:53 AM PST 6:15 PM PST
Moon 3:09 AM PST (1/7) 12:43 PM PST (1/7)
Length of Visible Light 9h 51m
Length of Day
8h 41m
Waning Crescent, 21% of the Moon is Illuminated
Jan 7
Waning Crescent
Jan 11
New
Jan 18
First Quarter
Jan 26
Full
Feb 3
Last Quarter

Hourly Weather History & Observations

Time (PST) Temp. Windchill Dew Point Humidity Pressure Visibility Wind Dir Wind Speed Gust Speed Precip Events Conditions
12:53 AM 27.0 °F 21.6 °F 25.0 °F 92% 30.09 in 5.0 mi NNE 4.6 mph - 0.00 in   Overcast
1:22 AM 26.6 °F 21.2 °F 24.8 °F 93% 30.03 in 6.0 mi NNE 4.6 mph - N/A   Overcast
1:53 AM 27.0 °F 23.0 °F 25.0 °F 92% 30.08 in 5.0 mi North 3.5 mph - N/A   Overcast
2:53 AM 27.0 °F 23.0 °F 25.0 °F 92% 30.07 in 9.0 mi North 3.5 mph - N/A   Overcast
3:53 AM 27.0 °F 23.0 °F 24.1 °F 89% 30.05 in 4.0 mi North 3.5 mph - 0.00 in Snow Light Snow
4:53 AM 27.0 °F - 25.0 °F 92% 30.01 in 8.0 mi Calm Calm - 0.00 in   Overcast
5:53 AM 27.0 °F - 25.0 °F 92% 29.99 in 4.0 mi Calm Calm - 0.00 in Snow Light Snow
6:34 AM 26.6 °F - 24.8 °F 93% 29.93 in 2.0 mi Calm Calm - 0.00 in Snow Light Snow
6:53 AM 27.0 °F - 26.1 °F 96% 29.96 in 3.0 mi Calm Calm - 0.00 in Snow Light Snow
7:25 AM 26.6 °F 22.6 °F 24.8 °F 93% 29.93 in 2.5 mi WNW 3.5 mph - 0.01 in Snow Light Snow
7:33 AM 26.6 °F 22.6 °F 24.8 °F 93% 29.92 in 3.0 mi West 3.5 mph - 0.01 in Snow Light Snow
7:40 AM 26.6 °F 22.6 °F 24.8 °F 93% 29.92 in 2.0 mi WNW 3.5 mph - 0.01 in Snow Light Snow
7:49 AM 26.6 °F - 24.8 °F 93% 29.91 in 1.5 mi Calm Calm - 0.01 in Snow Light Snow
7:53 AM 27.0 °F 21.6 °F 25.0 °F 92% 29.96 in 1.2 mi NW 4.6 mph - 0.02 in Snow Light Snow
8:45 AM 26.6 °F - 26.6 °F 100% 29.90 in 3.0 mi Calm Calm - 0.01 in Snow Light Snow
8:53 AM 27.0 °F 23.0 °F 26.1 °F 96% 29.94 in 4.0 mi SSW 3.5 mph - 0.01 in   Overcast
9:53 AM 28.0 °F - 26.1 °F 92% 29.93 in 6.0 mi Calm Calm - N/A   Overcast
10:43 AM 28.4 °F - 26.6 °F 93% 29.88 in 10.0 mi Calm Calm - N/A   Overcast
10:53 AM 28.9 °F - 26.1 °F 89% 29.93 in 9.0 mi Calm Calm - N/A   Overcast
11:53 AM 28.9 °F 25.2 °F 26.1 °F 89% 29.90 in 9.0 mi South 3.5 mph - N/A   Overcast
12:15 PM 30.2 °F 25.4 °F 26.6 °F 86% 29.83 in 10.0 mi South 4.6 mph - N/A   Overcast
12:53 PM 30.0 °F 24.1 °F 26.1 °F 85% 29.87 in 9.0 mi South 5.8 mph - N/A   Overcast
1:01 PM 30.2 °F 24.3 °F 26.6 °F 86% 29.83 in 10.0 mi South 5.8 mph - N/A   Overcast
1:53 PM 30.0 °F 25.2 °F 26.1 °F 85% 29.88 in 9.0 mi South 4.6 mph - N/A   Overcast
2:03 PM 30.2 °F 26.7 °F 26.6 °F 86% 29.84 in 10.0 mi SSE 3.5 mph - N/A   Overcast
2:45 PM 30.2 °F 16.8 °F 26.6 °F 86% 29.85 in 8.0 mi NNE 23.0 mph 33.4 mph N/A   Squalls
2:53 PM 30.0 °F 26.5 °F 26.1 °F 85% 29.90 in 8.0 mi SSE 3.5 mph 33.4 mph N/A   Mostly Cloudy
3:04 PM 28.4 °F 24.6 °F 26.6 °F 93% 29.85 in 8.0 mi SSE 3.5 mph - N/A   Scattered Clouds
3:41 PM 30.2 °F - 26.6 °F 86% 29.86 in 5.0 mi North - - N/A   Mostly Cloudy
3:53 PM 30.0 °F - 28.0 °F 92% 29.91 in 4.0 mi Calm Calm - N/A   Overcast
4:53 PM 28.9 °F 22.8 °F 28.0 °F 96% 29.91 in 5.0 mi NE 5.8 mph - N/A   Overcast
5:53 PM 28.9 °F 20.4 °F 27.0 °F 92% 29.93 in 5.0 mi North 9.2 mph - N/A   Overcast
6:53 PM 28.9 °F 21.1 °F 27.0 °F 92% 29.94 in 3.0 mi North 8.1 mph - N/A   Overcast
6:58 PM 28.4 °F 19.7 °F 26.6 °F 93% 29.90 in 1.8 mi North 9.2 mph - N/A   Overcast
7:07 PM 28.4 °F 22.2 °F 26.6 °F 93% 29.90 in 3.0 mi North 5.8 mph - N/A   Overcast
7:20 PM 28.4 °F 20.4 °F 26.6 °F 93% 29.89 in 1.8 mi North 8.1 mph - N/A   Overcast
7:53 PM 28.9 °F 20.4 °F 28.0 °F 96% 29.97 in 2.0 mi North 9.2 mph - N/A   Overcast
8:23 PM 28.4 °F 19.7 °F 26.6 °F 93% 29.93 in 2.0 mi North 9.2 mph - N/A   Overcast
8:39 PM 28.4 °F 19.1 °F 26.6 °F 93% 29.94 in 5.0 mi NNE 10.4 mph - N/A   Overcast
8:53 PM 28.9 °F 21.1 °F 28.0 °F 96% 29.99 in 5.0 mi North 8.1 mph - N/A   Overcast
9:17 PM 28.4 °F 18.5 °F 26.6 °F 93% 29.95 in 2.0 mi North 11.5 mph - N/A   Overcast
9:53 PM 27.0 °F 21.6 °F 26.1 °F 96% 30.01 in 8.0 mi Variable 4.6 mph - N/A   Scattered Clouds
10:53 PM 25.0 °F 20.7 °F 23.0 °F 92% 30.04 in 9.0 mi NNW 3.5 mph - N/A   Clear
11:53 PM 25.0 °F 17.1 °F 23.0 °F 92% 30.08 in 8.0 mi SSE 6.9 mph - N/A   Clear